User: anonymous   Login
Location: Caltech
(34.1382°N, 118.1253°W)
Time: 15:24:17
(UTC-08:00)
Language:

CZ-2C R/B - Orbit

View from above orbital plane
View from above orbital plane
View from above satellite
View from above satellite

Ground track
Ground track

The orbit data is extracted from the following two-line orbital elements,

1 36089U 09061B   15060.06549942  .00000341  00000-0  96540-4 0  9999
2 36089 098.0812 087.6787 0083632 108.9949 308.2730 14.49371220280142
Epoch (UTC): 01 March 2015 01:34:19
Eccentricity: 0.0083632
inclination: 98.0812°
perigee height: 668 km
apogee height: 787 km
right ascension of ascending node: 87.6787°
argument of perigee: 108.9949°
revolutions per day: 14.49371220
mean anomaly at epoch: 308.2730°
orbit number at epoch: 28014

The dashed part of the orbit path shows where the satellite is in the earth's shadow,  

DLR